Temperature
21 20 19 19 18 18 20 21 22 22 22 21 22 22 21 21 21 20 19 20 21 20 20 19 20 20 20 20 20 20 20 20 20 20 19 19 19 19 19 19 19 19 19 19 19 19 18 18 18
21 20 19 19 19 20 21 22 22 23 22 22 22 21 21 20 19 19 19 20 21 20 20 20 20 20 20 20 20 20 20 20 20 19 19 19 19 19 19 19 19 19 19 19 19 18 18 18 18
20 20 19 18 19 20 22 23 22 23 23 22 22 21 21 20 19 19 19 20 20 20 20 20 20 20 20 20 20 20 20 20 19 19 19 19 19 19 19 19 19 19 19 19 18 18 18 18 18
20 20 19 18 20 21 22 23 23 23 22 22 22 21 20 20 20 20 20 20 20 20 20 20 20 20 20 20 20 20 20 19 19 19 19 19 19 19 19 19 19 19 19 18 18 18 18 18 18
20 20 18 18 20 21 22 23 23 23 22 22 21 20 19 19 20 20 20 20 20 20 20 20 20 20 20 20 20 20 19 19 19 19 19 19 19 19 19 19 19 19 19 18 18 18 18 18 17
20 18 18 19 21 22 23 23 23 22 22 21 21 19 18 19 20 20 20 20 20 20 20 20 20 20 20 20 20 19 19 19 19 19 19 19 19 19 19 19 19 18 18 18 18 18 18 18 17
20 17 19 20 21 22 24 23 22 22 21 21 21 19 18 18 19 20 20 20 20 20 20 19 19 19 19 19 19 19 19 19 19 19 19 19 19 19 18 18 18 18 18 18 18 18 18 18 17
21 17 20 19 21 22 23 23 22 21 21 20 20 19 18 18 18 19 19 19 19 20 19 19 19 19 19 19 19 19 19 19 19 19 19 19 19 18 18 18 18 18 18 18 18 18 18 18 17
21 18 18 20 21 22 23 22 22 21 20 20 20 20 19 19 18 18 18 18 19 19 19 19 19 19 19 19 19 19 19 19 19 19 19 18 18 18 18 18 18 18 18 18 18 18 18 18 18
21 18 20 21 22 22 22 22 21 20 19 19 19 19 19 18 18 18 18 18 19 19 19 19 19 19 19 19 19 19 19 19 19 18 18 18 18 18 18 18 18 18 18 18 18 18 18 18 18
20 20 21 22 22 22 21 21 20 19 18 19 19 19 18 18 18 18 19 19 19 19 19 19 19 19 19 19 19 19 19 18 18 18 18 18 18 18 18 17 17 17 17 17 17 17 17 17 17
21 21 22 22 23 22 21 20 19 19 19 19 19 19 19 18 18 19 19 19 19 19 19 19 19 19 19 19 19 19 18 18 18 18 18 18 18 18 17 17 17 17 17 17 17 17 17 17 17
22 22 22 22 21 20 20 19 19 18 19 19 19 18 18 18 18 18 19 19 19 19 19 19 19 19 18 19 18 18 18 18 18 18 18 18 17 17 17 17 17 17 17 17 17 17 17 17 17
23 22 21 21 21 20 19 19 19 18 18 18 18 18 18 18 18 18 18 18 19 19 19 19 19 18 18 18 18 18 18 18 18 18 17 17 17 17 17 17 17 17 17 16 16 16 17 17 17
23 21 21 21 21 20 20 19 18 18 18 18 18 18 17 18 18 18 19 19 19 19 19 19 19 18 18 18 18 18 18 18 18 17 17 17 17 17 17 17 16 16 16 16 16 16 16 16 16
22 21 21 21 20 20 20 19 18 18 18 17 17 17 17 17 18 18 18 19 19 19 18 19 19 18 18 18 18 18 18 18 18 17 17 17 17 17 17 16 16 16 16 16 16 16 16 16 16
21 21 21 21 20 20 19 19 18 18 17 17 17 17 17 17 17 18 18 18 18 18 18 18 18 18 18 18 18 18 17 17 17 17 17 17 17 16 16 16 16 16 16 16 16 16 15 15 15
22 21 21 21 20 20 19 18 17 17 17 17 17 17 17 17 17 17 18 18 18 18 18 18 18 18 18 18 17 17 17 17 17 17 17 16 16 16 16 16 16 16 15 15 15 15 15 15 15
22 22 21 21 20 19 18 18 17 17 17 17 17 17 17 17 17 17 17 18 18 18 18 18 18 18 18 17 17 17 17 17 17 17 17 16 16 16 16 16 15 15 15 15 15 15 15 15 15
22 21 20 20 20 19 18 18 17 17 17 17 17 17 17 17 17 17 17 18 18 18 18 18 18 18 18 18 17 17 17 17 17 17 16 16 16 16 15 15 15 15 15 15 15 14 14 14 14
22 21 21 20 19 19 19 18 18 17 17 17 17 18 18 18 18 18 18 18 18 18 18 18 18 18 18 17 17 17 17 17 17 16 16 16 16 15 15 15 15 15 14 14 14 14 14 14 14
22 22 21 20 19 17 18 17 18 17 17 17 17 17 18 18 18 18 18 18 18 18 18 18 18 18 18 17 17 17 17 17 17 16 16 16 15 15 15 15 14 14 14 14 14 14 14 14 13
21 20 20 19 18 17 17 17 17 17 17 17 17 18 18 18 18 18 18 18 18 18 18 18 18 18 17 17 17 17 17 17 16 16 16 15 15 15 15 14 14 14 14 14 13 13 13 13 13
20 19 18 16 16 18 18 17 18 16 17 18 18 18 19 19 19 19 19 18 18 18 18 18 18 18 17 17 17 17 17 16 16 16 15 15 15 15 14 14 14 14 13 13 13 13 13 13 13
20 19 18 19 17 18 18 17 17 18 18 18 18 19 19 19 19 19 19 19 19 18 18 18 18 18 17 17 17 17 16 16 16 16 15 15 15 14 14 14 14 13 13 13 13 13 12 12 12
20 19 19 20 19 18 18 17 18 19 19 20 20 20 20 20 20 20 20 19 19 19 19 18 18 18 17 17 17 16 16 16 16 15 15 15 14 14 14 14 13 13 13 13 13 12 12 12 12
20 19 18 17 18 18 18 18 18 19 19 19 19 19 20 20 20 20 20 20 20 19 19 19 19 18 18 17 17 16 16 16 15 15 15 14 14 14 14 13 13 13 13 13 12 12 12 12 12
20 17 16 17 18 19 19 19 18 19 19 18 18 19 20 21 21 21 21 20 20 20 20 19 19 18 18 17 17 17 16 16 15 15 15 14 14 14 14 13 13 13 13 12 12 12 12 12 12
20 19 16 15 17 18 19 19 19 19 19 18 18 20 21 22 22 22 21 21 21 20 20 19 19 18 18 18 17 17 16 16 15 15 15 15 14 14 14 13 13 13 13 12 12 12 12 12 12
21 19 16 18 18 16 17 18 20 19 19 19 20 21 22 22 22 22 22 21 21 20 20 20 19 19 18 18 17 17 16 16 16 15 15 15 14 14 14 13 13 13 13 12 12 12 12 12 12
Wind_Speed
8 6 2 1 3 4 2 3 2 2 3 2 3 3 2 1 1 2 2 11 18 17 18 21 21 21 21 21 20 20 19 19 18 17 17 16 15 14 13 12 12 11 11 11 11 10 11 11 11
6 3 1 2 4 2 4 3 3 4 5 5 3 3 2 2 2 4 5 11 17 16 17 19 21 21 21 20 20 19 18 18 17 16 15 15 14 13 12 12 11 11 11 11 10 10 11 11 11
5 1 3 3 2 3 4 3 4 2 6 6 4 3 3 1 4 4 7 14 14 14 16 20 22 21 20 20 19 18 18 17 16 15 14 14 13 12 11 11 10 10 10 10 10 10 10 10 10
3 3 4 3 2 4 5 4 4 4 3 2 5 4 3 3 4 7 14 15 14 11 15 19 21 21 20 19 18 17 17 16 15 14 13 12 12 11 11 10 10 9 9 9 9 9 9 9 9
3 3 4 3 5 5 5 3 4 5 4 3 5 4 2 4 10 15 15 15 14 11 13 18 21 20 19 18 18 17 16 15 14 13 12 11 11 10 9 9 9 9 8 8 8 8 8 8 8
4 4 3 2 5 5 4 2 3 4 4 4 4 4 2 4 11 14 14 13 12 12 11 16 20 20 19 18 17 16 15 14 13 12 11 11 10 9 9 8 8 7 7 7 7 7 6 6 6
4 4 2 3 4 5 3 3 2 3 4 3 3 5 4 5 9 12 12 12 11 10 9 10 15 17 18 17 16 15 14 13 13 12 11 10 10 9 8 7 7 6 6 6 6 6 5 5 4
4 4 1 3 4 5 2 2 1 3 3 2 3 6 6 8 11 12 12 10 10 8 8 8 10 12 13 14 15 14 14 13 12 11 10 9 9 8 7 7 6 6 6 5 5 5 4 4 3
4 4 2 5 5 4 1 1 1 3 4 2 1 2 6 13 14 13 12 10 9 9 7 7 7 9 10 11 13 13 13 12 11 10 10 8 6 5 5 6 6 6 6 5 4 4 4 3 2
4 3 7 5 4 3 1 0 1 3 3 1 3 5 12 15 14 14 14 13 12 11 9 7 7 7 8 9 9 9 9 9 8 7 7 6 5 4 4 5 6 5 5 4 4 3 3 2 0
6 6 5 4 3 2 1 0 1 5 2 4 7 12 14 14 12 12 12 11 10 10 10 8 7 7 6 5 7 6 6 6 6 6 5 5 4 2 2 2 2 2 3 3 2 2 1 1 1
5 5 4 3 1 1 2 1 2 1 2 2 5 11 13 14 12 11 10 9 8 8 8 8 7 6 5 5 5 6 5 5 5 5 5 5 3 2 1 1 2 2 2 2 2 1 1 0 0
4 3 1 1 4 2 3 3 3 1 2 4 7 11 11 11 9 7 6 6 8 8 7 7 6 6 5 4 4 5 5 5 5 5 5 6 4 2 2 1 1 1 1 1 1 1 0 1 1
3 1 0 1 1 1 4 1 2 1 4 6 8 9 8 8 7 6 6 6 6 7 7 7 6 5 4 3 3 4 5 5 5 5 5 6 5 3 2 1 1 1 1 1 2 1 1 1 1
1 2 2 1 1 2 3 3 1 2 4 6 7 7 7 6 6 7 7 6 7 6 6 6 6 5 4 4 4 4 5 5 4 4 5 6 5 5 3 2 1 1 2 2 2 2 2 1 1
3 3 2 2 1 1 3 2 1 1 4 5 5 5 5 4 5 6 6 6 5 6 6 5 6 6 5 4 3 4 5 5 4 4 4 5 6 6 4 2 1 1 2 3 2 2 1 1 1
4 2 3 3 1 1 2 3 1 1 4 4 4 4 4 3 4 5 6 7 6 6 7 6 6 6 6 5 3 3 4 4 4 4 4 4 5 6 5 3 2 2 2 2 1 1 1 0 1
5 3 3 3 2 2 1 1 1 1 4 5 4 4 5 6 5 6 7 7 6 5 6 7 6 5 5 4 4 3 3 2 3 3 4 4 5 6 5 3 3 3 2 1 1 1 1 0 1
4 4 4 3 1 2 1 1 2 2 2 4 4 4 5 5 4 6 7 8 7 7 6 7 7 5 5 4 3 4 3 2 2 2 3 4 4 5 5 3 3 2 2 2 2 2 1 1 1
4 3 3 1 2 2 1 2 0 2 3 4 5 5 5 4 4 5 7 8 8 8 8 7 7 7 6 4 3 3 4 3 2 2 2 2 3 4 4 4 2 2 2 2 2 2 1 1 1
3 5 4 3 2 4 3 4 2 1 2 3 4 4 4 6 7 7 7 8 8 8 9 8 7 7 6 5 4 4 4 3 2 1 1 1 2 3 4 4 3 3 3 2 2 2 3 1 0
4 4 5 5 3 1 1 2 5 3 2 5 6 6 5 5 6 6 8 9 9 9 8 7 7 7 6 6 6 6 4 3 3 2 1 1 2 2 3 4 4 3 2 2 1 2 2 2 1
3 5 6 4 4 2 2 1 6 1 5 8 9 9 7 7 7 8 8 9 8 8 8 7 7 6 6 6 7 7 5 3 3 2 2 2 2 2 3 4 4 3 2 2 2 2 2 2 2
6 7 7 6 5 1 2 2 6 5 8 7 9 10 10 9 8 8 7 7 7 7 7 7 8 6 6 7 7 8 8 6 5 3 3 1 1 1 2 3 3 3 2 2 2 2 2 2 2
5 6 4 5 4 5 2 3 8 8 8 9 10 11 11 10 10 9 9 9 9 10 9 9 9 7 7 7 7 7 8 7 7 5 4 3 2 1 1 2 2 2 2 2 2 2 2 2 2
5 7 6 4 4 5 2 5 7 5 5 6 7 9 10 10 10 10 11 10 10 11 10 10 10 8 8 8 7 6 7 5 4 5 4 4 3 3 2 2 2 2 2 2 2 1 2 2 2
7 4 5 6 2 1 5 7 8 1 2 5 6 8 10 11 11 11 11 11 11 11 11 12 11 9 9 8 7 6 6 6 6 5 4 3 3 2 3 2 2 2 2 2 2 2 2 2 3
5 9 6 5 4 2 5 5 5 6 7 7 8 10 11 11 11 11 11 11 11 10 10 10 10 10 8 8 8 7 7 6 6 5 5 4 4 3 3 3 3 3 2 2 2 2 3 3 3
5 5 5 5 5 5 3 7 7 10 10 11 13 12 13 12 13 12 11 10 9 9 9 10 10 9 9 9 8 7 7 6 5 5 5 5 4 4 5 5 4 4 4 3 3 4 4 4 4
5 7 8 5 4 5 4 8 6 8 9 10 11 11 11 12 12 11 10 9 9 10 10 11 11 10 10 9 8 8 7 6 6 6 6 6 6 5 5 5 5 5 5 5 5 6 5 6 6
Wind_Direction
150 143 132 83 53 44 289 241 215 179 155 160 136 126 137 132 217 255 97 138 136 142 151 151 147 142 138 135 134 132 131 131 131 132 133 133 133 131 130 128 127 125 122 118 116 114 112 112 113
138 146 81 62 76 25 289 225 208 191 167 146 118 89 84 94 89 104 126 138 138 142 148 150 149 145 142 139 138 137 136 136 136 137 138 137 136 134 134 132 130 127 125 122 119 117 114 114 114
152 160 86 71 100 199 264 227 197 162 152 148 135 96 110 118 127 132 142 139 135 140 146 153 151 148 146 144 143 142 142 141 142 143 142 141 140 140 139 137 134 130 127 125 122 119 117 116 116
127 54 56 63 272 243 245 248 188 152 137 138 132 103 90 32 128 134 137 139 137 137 147 155 153 152 150 149 148 148 148 147 147 148 147 147 146 145 144 142 139 134 131 128 125 123 120 118 117
68 76 54 5 279 270 270 259 177 157 150 136 128 117 64 29 113 131 139 142 141 139 147 157 156 156 154 153 153 153 153 152 153 154 154 153 152 152 151 149 144 141 138 135 132 128 124 121 119
62 66 72 306 287 282 288 324 138 133 126 124 120 114 75 107 129 138 140 140 144 144 148 159 160 158 157 157 157 157 158 158 159 160 161 162 161 162 163 158 156 154 150 146 142 137 131 125 119
108 101 170 250 278 292 305 8 113 136 126 137 132 119 121 142 144 139 138 138 139 139 140 149 158 160 160 160 160 161 162 163 165 167 168 170 170 170 173 174 172 165 161 156 153 150 145 138 129
135 106 286 265 252 270 307 25 31 96 114 87 110 147 163 163 146 136 135 138 138 136 138 136 145 151 155 160 163 164 166 167 169 171 174 177 177 179 184 184 186 180 177 174 172 171 164 156 144
112 75 252 238 225 252 310 46 49 71 98 84 77 145 146 144 144 140 138 139 147 153 142 131 129 137 146 154 165 168 169 171 173 176 179 178 177 181 189 197 201 198 196 198 197 197 189 175 161
119 170 236 231 213 210 211 170 148 106 101 112 107 111 132 144 150 153 155 158 163 161 157 144 136 138 144 157 158 158 160 164 167 169 172 163 163 181 199 217 221 214 212 221 223 222 208 180 122
172 206 245 261 232 188 172 345 74 131 175 207 171 151 148 152 158 162 164 163 163 161 161 156 147 143 144 141 144 142 142 150 157 164 161 156 161 181 203 219 234 224 221 237 246 239 228 194 182
188 247 242 275 303 114 152 137 76 102 216 162 144 148 154 158 166 171 165 161 148 150 154 153 149 145 151 146 149 148 146 155 161 174 173 166 168 178 194 210 245 225 213 217 237 233 237 196 135
210 254 307 45 53 77 97 96 106 79 92 116 131 141 151 163 167 170 160 148 146 151 152 150 145 147 149 147 155 158 162 169 173 182 190 179 168 169 157 141 135 177 181 183 194 200 180 109 90
223 183 61 12 72 79 112 86 98 137 113 128 135 144 149 156 160 151 147 148 149 152 152 147 145 150 149 150 151 157 165 169 170 180 189 176 169 162 151 144 122 107 153 181 180 171 143 114 105
72 62 7 15 75 135 103 24 48 146 126 127 136 144 142 144 138 147 154 153 153 150 147 146 145 139 149 159 166 164 166 159 154 162 167 164 165 159 148 137 127 133 128 125 110 92 92 91 68
51 48 340 306 67 152 126 252 277 160 131 126 138 147 143 143 143 151 150 146 153 146 152 157 151 146 155 157 157 158 158 152 146 151 156 163 162 153 139 130 126 121 113 111 108 97 92 50 28
27 342 288 305 15 104 143 232 262 168 136 133 138 145 155 159 151 153 157 161 161 161 157 147 134 147 148 142 136 135 135 132 140 147 155 163 158 151 140 135 132 121 107 98 107 91 112 101 302
267 268 275 285 313 63 121 215 157 194 153 158 163 168 169 182 187 167 167 161 155 158 150 136 129 140 133 119 105 100 98 98 118 138 155 158 155 154 144 137 133 129 115 106 102 99 84 85 299
225 229 258 279 333 64 66 194 196 189 174 180 182 187 189 194 185 165 164 157 153 151 148 146 150 159 143 137 139 137 137 129 117 137 150 153 153 152 147 135 128 131 132 146 147 132 96 26 7
209 223 237 331 36 70 38 343 212 191 205 208 201 200 196 176 165 168 158 157 157 158 161 160 166 164 162 157 150 138 129 120 109 91 96 122 150 156 156 150 148 147 133 119 123 127 120 52 57
215 199 201 178 65 47 40 343 288 224 192 219 218 204 195 188 180 174 167 165 158 165 170 169 166 160 156 147 126 104 84 73 75 69 63 46 119 153 153 155 150 146 144 147 153 147 147 158 60
241 225 160 137 114 329 61 295 280 244 245 231 222 212 208 196 181 176 174 168 172 176 168 161 161 156 153 153 148 146 148 154 170 153 130 75 82 123 143 143 139 136 135 141 152 141 145 147 170
167 81 94 99 110 48 25 162 282 255 240 235 220 209 204 196 188 186 184 178 176 169 165 160 154 155 155 153 151 144 140 143 130 114 112 89 49 80 126 137 135 134 133 137 132 130 139 153 169
121 75 62 53 67 354 247 183 272 228 220 221 208 202 197 194 191 189 180 167 168 162 160 159 160 162 156 152 150 151 151 149 142 141 140 123 62 45 90 126 135 142 144 151 158 154 154 167 171
95 93 33 359 4 265 251 219 252 244 223 208 198 195 192 189 185 184 178 175 176 174 172 170 168 166 162 156 155 158 158 159 164 167 170 168 163 165 171 137 143 153 175 178 171 171 188 187 186
168 142 158 209 239 280 297 248 258 262 234 206 191 183 182 185 187 190 189 186 184 182 178 175 173 171 168 165 164 161 161 162 168 174 177 183 190 199 196 172 177 192 195 191 178 190 214 203 208
141 166 155 132 140 293 283 284 300 248 196 189 188 184 190 192 192 195 194 192 189 185 184 180 177 175 175 172 166 167 170 174 179 182 183 189 196 201 196 198 202 217 219 214 194 216 229 219 226
136 139 105 124 149 260 295 281 250 233 214 201 196 200 205 197 196 197 195 195 192 188 182 176 177 180 176 173 176 180 182 185 182 177 189 196 202 202 198 211 219 229 232 225 215 233 236 230 238
126 117 115 120 150 159 254 275 229 212 203 199 203 204 203 199 200 200 198 193 185 178 176 178 179 176 178 180 180 175 183 185 180 189 203 203 206 206 210 216 223 233 240 235 227 239 241 241 251
163 165 149 156 203 175 187 267 272 221 209 199 205 206 203 200 199 198 193 180 179 183 184 184 183 186 187 181 178 183 184 182 189 206 213 209 214 217 219 221 228 237 240 234 232 245 245 242 251
Height
1506 1507 1508 1509 1511 1518 1518 1510 1504 1503 1502 1502 1502 1503 1505 1508 1511 1515 1510 1511 1515 1519 1524 1528 1532 1535 1537 1540 1542 1543 1545 1546 1548 1549 1551 1552 1553 1554 1554 1555 1556 1556 1557 1557 1558 1558 1558 1559 1559
1506 1507 1509 1510 1516 1525 1518 1505 1503 1500 1499 1500 1501 1503 1505 1507 1508 1508 1509 1513 1517 1521 1525 1529 1533 1536 1539 1541 1543 1545 1546 1548 1549 1551 1552 1553 1554 1555 1556 1557 1557 1558 1558 1559 1559 1560 1560 1561 1561
1507 1508 1510 1511 1517 1521 1512 1501 1499 1498 1499 1499 1501 1503 1505 1506 1507 1508 1510 1514 1518 1522 1526 1530 1534 1537 1540 1542 1544 1546 1547 1549 1551 1552 1553 1554 1555 1557 1558 1558 1559 1560 1560 1561 1561 1561 1562 1563 1563
1507 1509 1510 1515 1516 1510 1503 1497 1496 1497 1499 1499 1500 1503 1505 1507 1507 1508 1511 1516 1520 1523 1527 1531 1535 1538 1541 1543 1545 1547 1549 1550 1552 1554 1555 1556 1557 1558 1559 1560 1560 1561 1562 1562 1563 1563 1564 1564 1565
1508 1509 1514 1520 1515 1505 1498 1495 1494 1495 1497 1499 1499 1502 1505 1506 1507 1509 1512 1516 1521 1524 1528 1532 1535 1539 1541 1544 1546 1548 1550 1551 1553 1555 1556 1557 1558 1559 1560 1561 1562 1562 1563 1564 1564 1565 1566 1566 1567
1509 1510 1521 1523 1513 1502 1496 1495 1494 1495 1497 1499 1500 1503 1506 1507 1508 1510 1514 1517 1521 1525 1529 1532 1536 1539 1542 1545 1547 1549 1551 1552 1554 1555 1557 1558 1559 1560 1561 1562 1563 1564 1564 1565 1566 1566 1567 1568 1569
1510 1514 1519 1516 1512 1504 1497 1495 1495 1496 1497 1499 1500 1503 1506 1508 1510 1511 1515 1518 1522 1526 1529 1533 1537 1540 1543 1545 1547 1549 1551 1553 1555 1556 1558 1559 1560 1561 1562 1563 1564 1565 1565 1566 1567 1567 1568 1569 1570
1509 1513 1516 1516 1511 1505 1497 1497 1496 1497 1498 1499 1500 1502 1504 1507 1509 1512 1515 1519 1523 1526 1530 1533 1536 1540 1542 1545 1547 1550 1552 1553 1555 1557 1558 1560 1561 1562 1563 1564 1565 1566 1566 1567 1568 1568 1569 1570 1571
1508 1517 1520 1512 1508 1502 1497 1497 1498 1498 1498 1498 1499 1500 1502 1505 1508 1511 1515 1519 1523 1525 1529 1533 1536 1539 1543 1545 1548 1550 1552 1554 1555 1557 1559 1560 1561 1562 1563 1564 1565 1566 1567 1568 1568 1569 1570 1570 1571
1508 1517 1511 1502 1499 1497 1497 1497 1497 1498 1498 1499 1499 1500 1502 1504 1508 1511 1514 1517 1521 1524 1528 1532 1536 1539 1543 1545 1548 1550 1552 1554 1556 1557 1559 1560 1561 1562 1564 1564 1565 1566 1567 1568 1568 1569 1569 1570 1571
1505 1507 1500 1497 1496 1496 1497 1497 1497 1498 1499 1497 1497 1498 1501 1504 1508 1510 1514 1517 1519 1523 1528 1532 1536 1540 1543 1545 1548 1550 1552 1554 1556 1557 1559 1560 1561 1562 1563 1564 1565 1566 1566 1567 1568 1568 1569 1570 1570
1503 1499 1498 1496 1495 1496 1496 1497 1498 1498 1497 1496 1497 1498 1501 1504 1507 1510 1513 1517 1520 1524 1528 1532 1536 1539 1542 1546 1548 1550 1552 1554 1556 1557 1559 1560 1561 1562 1563 1564 1565 1565 1565 1566 1567 1568 1568 1569 1570
1500 1498 1497 1496 1495 1496 1496 1497 1498 1498 1497 1497 1498 1500 1502 1505 1507 1511 1514 1517 1520 1524 1528 1531 1535 1539 1542 1545 1548 1550 1552 1554 1556 1557 1559 1560 1561 1561 1562 1563 1563 1564 1564 1565 1566 1567 1568 1568 1569
1497 1497 1497 1496 1496 1496 1497 1498 1498 1499 1498 1498 1499 1501 1504 1506 1508 1511 1515 1518 1521 1524 1528 1531 1535 1539 1542 1545 1548 1550 1552 1554 1555 1557 1558 1559 1560 1561 1561 1562 1562 1562 1563 1564 1565 1565 1566 1567 1567
1497 1499 1499 1497 1497 1497 1498 1500 1499 1499 1499 1499 1500 1502 1504 1507 1508 1511 1514 1517 1521 1524 1528 1532 1536 1539 1542 1545 1548 1550 1552 1553 1555 1556 1557 1558 1559 1560 1560 1561 1561 1561 1562 1562 1563 1564 1564 1565 1566
1498 1502 1506 1499 1498 1498 1502 1506 1500 1499 1499 1500 1501 1503 1505 1507 1509 1511 1514 1517 1521 1524 1528 1532 1535 1538 1542 1544 1547 1549 1552 1553 1554 1555 1557 1558 1558 1559 1559 1560 1560 1560 1561 1561 1562 1562 1563 1563 1564
1505 1510 1508 1502 1498 1498 1501 1504 1501 1499 1500 1501 1502 1504 1506 1508 1510 1512 1515 1518 1521 1525 1528 1531 1535 1538 1541 1544 1547 1549 1551 1552 1553 1555 1556 1557 1557 1558 1558 1559 1559 1559 1560 1560 1560 1561 1561 1561 1562
1509 1508 1506 1505 1499 1499 1502 1503 1501 1500 1501 1502 1503 1504 1506 1508 1510 1512 1515 1518 1522 1525 1528 1531 1534 1537 1540 1543 1546 1548 1550 1552 1553 1554 1555 1556 1556 1557 1557 1558 1558 1559 1559 1559 1559 1559 1560 1560 1560
1498 1502 1506 1502 1497 1500 1503 1504 1502 1501 1502 1502 1503 1504 1506 1508 1510 1513 1515 1518 1522 1525 1528 1531 1534 1537 1540 1542 1544 1547 1549 1551 1552 1553 1554 1555 1556 1556 1557 1557 1557 1557 1558 1558 1558 1558 1558 1558 1558
1498 1503 1504 1501 1498 1501 1505 1505 1502 1502 1502 1503 1502 1503 1505 1507 1510 1512 1515 1518 1521 1525 1528 1531 1534 1537 1540 1542 1545 1547 1548 1550 1551 1552 1553 1554 1555 1555 1556 1556 1556 1556 1556 1556 1556 1557 1556 1556 1556
1497 1501 1501 1503 1501 1502 1506 1508 1505 1502 1502 1502 1502 1503 1505 1507 1509 1511 1514 1517 1521 1524 1528 1531 1534 1537 1539 1542 1545 1546 1548 1549 1550 1551 1552 1553 1554 1554 1555 1555 1555 1555 1555 1555 1555 1555 1555 1555 1555
1498 1491 1494 1500 1508 1514 1511 1522 1507 1502 1502 1501 1501 1502 1504 1506 1509 1511 1514 1517 1521 1524 1528 1531 1534 1537 1539 1541 1544 1545 1546 1548 1549 1550 1551 1552 1552 1553 1553 1553 1553 1553 1553 1553 1553 1553 1553 1553 1553
1492 1491 1496 1502 1509 1516 1515 1521 1513 1504 1503 1499 1498 1500 1503 1505 1508 1511 1514 1517 1521 1524 1527 1530 1533 1536 1538 1540 1542 1544 1545 1546 1547 1548 1549 1550 1550 1551 1551 1551 1551 1551 1551 1551 1551 1551 1551 1551 1551
1490 1497 1503 1511 1517 1525 1516 1520 1515 1505 1497 1493 1494 1497 1500 1504 1508 1511 1514 1517 1520 1523 1527 1529 1532 1535 1537 1539 1541 1542 1543 1544 1546 1546 1547 1548 1548 1549 1549 1549 1549 1549 1549 1549 1549 1549 1549 1548 1548
1492 1507 1524 1524 1532 1527 1514 1517 1511 1491 1487 1487 1490 1493 1497 1502 1505 1509 1512 1515 1519 1522 1525 1528 1531 1533 1535 1537 1539 1540 1541 1543 1544 1544 1545 1546 1546 1546 1547 1547 1547 1547 1547 1547 1547 1546 1546 1546 1546
1493 1501 1521 1529 1531 1525 1515 1516 1498 1484 1483 1484 1487 1490 1495 1499 1503 1506 1510 1513 1517 1520 1523 1526 1528 1531 1533 1535 1537 1538 1540 1541 1542 1542 1543 1544 1544 1544 1545 1545 1545 1545 1545 1545 1544 1544 1544 1544 1544
1493 1500 1501 1517 1522 1526 1519 1507 1492 1482 1482 1483 1485 1489 1492 1496 1500 1504 1507 1511 1514 1517 1521 1524 1526 1529 1532 1533 1535 1537 1538 1539 1540 1541 1541 1542 1542 1542 1543 1543 1543 1543 1543 1542 1542 1542 1542 1542 1541
1484 1494 1508 1518 1527 1528 1517 1510 1502 1486 1483 1482 1484 1485 1488 1493 1497 1500 1504 1507 1511 1515 1518 1522 1525 1527 1530 1532 1533 1535 1536 1538 1538 1539 1540 1540 1540 1541 1541 1541 1541 1541 1541 1540 1540 1540 1540 1539 1539
1489 1495 1504 1515 1516 1526 1526 1511 1481 1478 1476 1477 1479 1481 1484 1488 1492 1496 1500 1504 1508 1512 1516 1519 1522 1525 1527 1529 1532 1533 1535 1536 1537 1537 1538 1538 1538 1539 1539 1539 1539 1539 1539 1538 1538 1538 1537 1537 1536
1479 1487 1499 1508 1513 1518 1521 1508 1470 1471 1471 1472 1475 1477 1481 1485 1489 1493 1497 1501 1506 1509 1513 1516 1519 1522 1524 1527 1529 1531 1533 1534 1534 1535 1536 1536 1536 1537 1537 1537 1537 1536 1536 1536 1535 1535 1534 1534 1533